Location: Beeston
(52.7000°N, 0.8167°E)
Time: 20:29:37
(UTC+00:00)

Cosmos 1606 Rocket - Pass Details

Date: 15 May 2026
Orbit: 595 x 625 km, 82.5° (Epoch: 7 June)

Event Time Altitude Azimuth Distance (km) Brightness Sun altitude
Exits shadow 21:17:13 14° 162° (SSE) 1,729 5.3 -10.7°
Maximum altitude 21:20:43 43° 93° (E) 852 4.0 -11.0°
Drops below altitude 10° 21:24:49 10° 22° (NNE) 1,955 6.6 -11.4°
Sets 21:27:06 0° 16° (NNE) 2,860 7.6 -11.6°
